Probability
0 0 0 0 0 0 0 0 0 0 0 3 3 6 6 6 3 0 0 0 3 3 3 3 6 6 6 10 10 10 10 6 3 13 16 23 23 16 19 16 13 13 13 23
0 0 0 0 0 0 0 0 0 0 0 3 6 6 3 6 6 0 0 0 3 3 3 3 3 6 6 10 10 10 6 3 6 13 16 23 23 19 19 19 13 19 19 19
0 0 0 0 0 0 0 0 0 0 0 0 3 3 6 6 6 0 0 0 3 3 3 3 3 6 6 10 13 6 6 6 10 13 16 19 19 19 16 16 13 16 19 26
0 0 0 0 0 0 0 0 0 0 0 0 0 0 3 3 3 6 3 3 3 3 3 3 3 6 10 6 3 3 6 6 6 10 19 16 23 23 19 16 16 13 23 26
0 0 0 0 0 0 0 0 0 0 0 0 0 0 0 0 10 13 10 6 6 6 3 3 6 6 3 6 6 3 6 3 6 16 16 10 13 13 19 19 19 16 10 19
0 0 0 0 0 0 0 0 0 0 0 0 0 0 0 0 6 10 6 6 6 6 6 6 3 3 10 13 16 16 6 6 13 19 19 16 19 19 23 23 26 23 13 16
0 0 0 0 0 0 0 0 0 0 0 0 0 0 3 3 3 6 10 6 6 6 6 10 13 10 13 16 23 23 23 10 19 26 23 29 26 26 29 29 29 29 29 26
0 0 0 0 0 0 0 0 0 0 0 0 0 3 3 3 3 6 6 13 10 6 10 10 10 10 6 10 19 19 29 32 32 29 29 29 32 32 32 35 32 32 35 32
0 0 0 0 0 0 0 0 0 0 0 0 0 3 3 3 10 16 10 13 13 10 16 13 6 0 3 6 19 29 26 26 35 39 29 32 32 32 29 29 29 35 32 35
0 0 0 0 0 0 0 0 0 0 0 0 0 0 3 6 10 10 13 6 6 10 13 10 10 6 13 13 23 26 32 32 35 39 42 42 23 29 35 32 39 35 39 39
0 0 0 0 0 0 0 0 0 0 0 0 0 0 3 6 3 10 6 10 6 6 6 16 13 10 13 16 32 39 42 35 42 42 42 45 48 42 32 39 45 42 39 39
0 0 0 0 0 0 0 0 0 0 0 0 0 3 0 0 10 13 13 10 6 3 6 6 6 6 16 26 35 35 52 52 48 42 45 45 48 48 45 45 45 42 42 42
0 0 0 0 0 0 0 0 0 0 0 0 0 3 6 10 16 19 16 16 19 10 13 16 13 19 26 39 42 45 45 45 45 42 45 42 45 48 48 42 39 39 39 39
0 0 0 0 0 0 0 0 0 0 0 0 0 3 6 16 23 19 16 16 19 13 16 23 26 19 35 32 42 45 39 39 39 48 48 52 48 48 45 39 35 32 32 35
0 0 0 0 0 0 0 0 0 0 0 0 3 0 0 13 19 23 19 23 32 19 26 29 32 26 23 29 29 35 35 39 35 39 42 45 42 42 39 45 42 39 29 32
0 0 0 0 0 0 0 0 3 3 0 0 0 0 3 23 23 26 23 26 35 39 29 29 32 32 29 32 26 29 35 32 39 39 45 39 32 32 45 45 39 35 29 29
0 0 0 0 0 0 0 0 0 3 3 3 0 3 6 23 26 19 29 35 42 39 42 42 29 26 23 19 32 26 32 39 39 35 45 42 35 39 39 45 35 32 32 35
0 0 0 0 0 0 0 0 6 6 3 3 6 3 13 19 23 29 32 32 35 39 42 32 35 32 26 26 32 19 26 32 35 32 32 35 32 29 32 35 35 32 35 29
0 0 0 0 0 0 0 0 0 6 6 3 6 10 26 23 26 23 26 23 29 29 26 29 35 29 23 29 26 29 23 26 32 26 26 23 26 23 23 26 26 29 23 23
0 0 0 0 0 0 0 0 0 3 6 3 16 29 26 26 23 23 19 23 26 26 29 32 32 29 19 23 23 26 19 23 16 19 19 19 19 16 16 16 19 19 26 16
0 0 0 0 0 0 0 0 0 3 3 3 16 6 3 6 6 10 6 19 23 23 23 26 29 19 16 16 16 13 13 13 16 19 19 19 19 23 23 23 23 23 23 19
0 0 0 0 0 0 0 6 0 0 0 0 6 10 6 6 10 16 19 19 19 19 23 23 19 19 16 16 16 13 10 10 13 16 16 19 23 23 23 23 23 23 19 19
0 0 0 0 0 0 0 6 6 0 3 10 10 10 6 13 13 19 23 19 16 23 23 19 23 19 16 16 13 13 10 6 6 6 13 16 19 19 23 23 23 16 16 16
0 0 0 0 0 3 6 6 6 3 3 6 10 10 16 13 19 16 19 16 19 19 16 13 16 19 13 10 13 13 6 3 3 6 13 13 13 13 10 10 13 16 13 13
0 0 0 0 3 6 6 3 3 3 3 10 10 13 16 19 19 19 19 19 19 16 16 19 13 10 10 10 6 3 0 0 3 3 6 10 10 10 10 6 3 6 10 10
0 0 0 0 3 3 0 0 3 3 6 6 16 16 13 19 23 23 26 23 16 10 6 10 10 6 6 6 0 3 3 3 3 6 3 6 6 6 3 3 3 3 3 3
Height
5901 5904 5906 5908 5911 5912 5914 5915 5916 5918 5918 5919 5920 5920 5921 5920 5920 5919 5918 5916 5915 5913 5912 5910 5908 5907 5906 5904 5903 5902 5901 5900 5899 5898 5897 5896 5895 5895 5894 5894 5893 5893 5893 5892
5898 5901 5904 5905 5907 5909 5911 5913 5915 5916 5917 5919 5919 5920 5920 5920 5920 5920 5919 5917 5916 5914 5913 5912 5910 5909 5907 5906 5904 5903 5902 5901 5900 5899 5899 5898 5897 5896 5895 5895 5894 5894 5893 5893
5894 5898 5900 5902 5904 5907 5909 5912 5913 5915 5916 5917 5919 5920 5920 5920 5920 5920 5919 5918 5916 5915 5914 5913 5912 5910 5909 5907 5906 5905 5904 5903 5901 5901 5900 5899 5898 5897 5896 5896 5895 5895 5894 5894
5888 5892 5896 5899 5901 5904 5907 5909 5911 5912 5914 5915 5917 5918 5919 5919 5920 5919 5919 5918 5917 5916 5914 5913 5912 5911 5910 5908 5907 5906 5905 5904 5903 5902 5901 5900 5899 5898 5897 5896 5895 5895 5894 5894
5883 5888 5891 5895 5898 5901 5904 5906 5908 5910 5911 5913 5914 5916 5919 5918 5919 5919 5918 5918 5917 5916 5915 5913 5912 5911 5910 5909 5907 5906 5905 5904 5903 5902 5901 5900 5899 5898 5898 5897 5896 5895 5894 5894
5878 5882 5887 5891 5894 5897 5900 5902 5904 5906 5908 5910 5912 5914 5916 5917 5918 5918 5918 5917 5916 5916 5915 5913 5912 5911 5910 5909 5907 5906 5905 5905 5904 5902 5901 5901 5900 5899 5898 5897 5896 5895 5894 5893
5872 5877 5881 5885 5889 5892 5895 5898 5901 5902 5904 5906 5909 5910 5914 5915 5916 5916 5916 5916 5915 5915 5914 5913 5912 5911 5910 5909 5907 5906 5905 5904 5903 5902 5901 5900 5900 5899 5898 5897 5896 5894 5893 5892
5866 5871 5876 5880 5884 5887 5890 5894 5897 5899 5901 5903 5905 5907 5911 5912 5913 5914 5914 5914 5913 5913 5912 5912 5911 5910 5909 5908 5907 5906 5904 5904 5902 5901 5900 5900 5899 5898 5897 5896 5895 5894 5892 5891
5861 5866 5871 5875 5879 5883 5886 5889 5893 5895 5897 5899 5901 5904 5907 5909 5910 5911 5912 5912 5911 5911 5911 5910 5909 5908 5908 5907 5905 5904 5903 5902 5901 5900 5898 5898 5898 5897 5896 5894 5893 5892 5891 5890
5855 5860 5865 5869 5873 5876 5881 5884 5887 5890 5892 5894 5897 5900 5903 5905 5907 5908 5909 5909 5909 5909 5909 5909 5908 5907 5906 5905 5904 5903 5902 5901 5899 5898 5897 5897 5896 5895 5894 5893 5892 5891 5889 5888
5849 5855 5859 5863 5867 5871 5875 5879 5882 5885 5888 5890 5892 5898 5900 5902 5903 5904 5905 5906 5906 5906 5906 5906 5906 5905 5904 5903 5902 5901 5900 5899 5898 5897 5896 5896 5894 5893 5892 5891 5890 5888 5887 5886
5844 5848 5853 5858 5862 5866 5870 5874 5877 5881 5883 5886 5888 5895 5895 5897 5899 5900 5902 5902 5902 5902 5903 5903 5903 5902 5902 5901 5900 5899 5898 5897 5895 5894 5894 5893 5892 5891 5890 5888 5887 5886 5884 5883
5838 5843 5847 5852 5857 5860 5864 5868 5872 5876 5879 5881 5884 5890 5891 5892 5894 5896 5897 5898 5899 5899 5899 5900 5900 5900 5899 5899 5898 5897 5895 5894 5892 5891 5891 5890 5889 5888 5887 5886 5884 5883 5881 5880
5833 5837 5843 5847 5851 5855 5858 5863 5867 5870 5873 5876 5879 5883 5886 5888 5889 5891 5892 5894 5895 5895 5896 5896 5897 5896 5896 5896 5895 5894 5893 5891 5890 5889 5888 5888 5886 5885 5884 5883 5881 5880 5877 5875
5827 5831 5836 5841 5845 5849 5853 5857 5861 5865 5868 5872 5875 5878 5881 5883 5885 5886 5888 5890 5891 5892 5892 5892 5893 5893 5893 5893 5892 5890 5889 5889 5888 5886 5886 5885 5883 5882 5881 5879 5877 5875 5872 5870
5820 5825 5830 5834 5839 5843 5847 5851 5855 5859 5862 5865 5869 5872 5875 5878 5880 5882 5884 5885 5886 5887 5888 5889 5889 5889 5889 5889 5888 5887 5886 5886 5884 5883 5883 5881 5880 5878 5877 5875 5873 5871 5869 5867
5815 5820 5824 5828 5833 5836 5840 5845 5849 5853 5856 5860 5863 5867 5870 5873 5875 5877 5879 5880 5882 5883 5884 5884 5884 5884 5884 5884 5884 5883 5882 5881 5881 5880 5878 5877 5876 5875 5873 5872 5870 5868 5866 5864
5809 5813 5817 5822 5826 5829 5836 5839 5843 5846 5850 5853 5857 5861 5864 5867 5869 5871 5873 5875 5876 5877 5878 5879 5879 5879 5879 5879 5879 5878 5878 5877 5876 5875 5874 5873 5872 5871 5869 5868 5866 5864 5862 5860
5803 5807 5811 5815 5818 5823 5829 5833 5836 5840 5844 5848 5851 5855 5857 5860 5863 5865 5867 5869 5870 5871 5872 5873 5873 5874 5874 5874 5874 5873 5872 5872 5871 5870 5869 5868 5867 5866 5865 5863 5861 5859 5857 5856
5795 5800 5804 5808 5811 5816 5823 5826 5830 5835 5837 5841 5844 5848 5851 5853 5856 5859 5861 5863 5864 5865 5866 5867 5867 5868 5868 5868 5868 5867 5867 5866 5865 5864 5864 5863 5862 5861 5860 5858 5856 5854 5853 5851
5788 5792 5796 5800 5805 5809 5816 5819 5824 5829 5832 5835 5837 5841 5844 5847 5850 5853 5854 5856 5857 5858 5860 5860 5861 5861 5862 5862 5862 5861 5861 5859 5859 5859 5857 5857 5856 5855 5854 5853 5851 5849 5847 5846
5781 5785 5789 5794 5798 5805 5809 5812 5817 5820 5824 5827 5830 5833 5837 5840 5842 5845 5846 5849 5850 5852 5853 5854 5855 5855 5855 5856 5856 5855 5855 5854 5853 5853 5852 5852 5850 5849 5848 5847 5845 5844 5842 5840
5774 5779 5783 5788 5793 5797 5801 5805 5808 5812 5816 5820 5823 5826 5830 5833 5836 5838 5840 5842 5844 5845 5846 5847 5848 5849 5849 5849 5849 5849 5848 5848 5848 5847 5846 5845 5844 5843 5842 5841 5839 5838 5836 5834
5766 5771 5775 5780 5784 5789 5793 5797 5800 5804 5808 5812 5815 5819 5822 5825 5828 5831 5833 5835 5837 5839 5840 5841 5842 5842 5843 5843 5842 5842 5842 5842 5842 5841 5840 5839 5838 5837 5836 5834 5833 5831 5829 5828
5758 5763 5767 5772 5776 5781 5785 5789 5793 5797 5801 5804 5808 5811 5815 5818 5821 5824 5826 5828 5830 5831 5833 5834 5835 5836 5836 5836 5836 5836 5835 5835 5835 5834 5833 5832 5831 5830 5829 5827 5826 5824 5822 5820
5751 5755 5760 5764 5768 5773 5777 5781 5785 5789 5793 5797 5800 5804 5807 5810 5813 5816 5818 5820 5822 5824 5826 5827 5828 5829 5829 5829 5829 5829 5828 5827 5827 5827 5826 5825 5824 5823 5821 5820 5818 5816 5815 5813
Wind_Speed
24 22 21 19 17 15 13 10 8 6 5 4 3 5 5 6 7 9 10 11 10 11 12 12 12 12 12 12 12 10 10 10 11 11 10 10 9 8 7 6 5 5 4 4
26 24 23 22 20 18 16 13 11 10 9 7 5 4 4 5 6 8 9 10 9 10 11 11 11 11 11 11 11 11 9 9 10 10 10 9 9 7 6 5 5 5 4 4
28 26 25 24 22 20 18 16 15 14 12 10 8 6 5 5 5 6 7 9 8 8 9 10 10 10 10 10 10 10 10 9 9 9 8 8 8 7 5 5 5 5 5 4
30 28 27 26 25 23 21 19 18 17 16 13 11 9 7 6 6 6 7 8 7 7 8 8 9 9 9 9 9 9 9 9 9 9 8 8 7 7 7 5 4 5 4 4
31 29 29 28 26 25 24 22 21 20 19 17 15 12 8 8 7 6 6 7 7 6 8 7 7 8 8 9 8 8 8 8 8 9 9 8 8 7 7 5 5 5 5 5
33 31 30 29 28 28 26 25 24 23 22 21 17 15 12 9 8 6 6 7 6 6 7 7 7 7 8 8 8 8 7 7 7 8 8 8 8 8 7 6 6 6 6 6
33 33 32 31 31 30 29 27 26 25 25 23 20 18 14 11 9 8 7 7 7 6 8 8 7 7 7 8 8 8 7 6 6 7 7 7 8 7 7 7 7 7 7 7
34 34 33 32 32 31 30 29 28 27 26 24 22 20 16 14 12 10 9 9 9 8 8 8 8 7 7 8 8 8 8 8 7 6 6 7 8 8 8 8 8 8 9 9
33 33 33 33 33 32 31 30 29 28 28 27 25 22 19 17 14 12 11 11 10 10 9 9 9 9 8 9 9 8 8 8 8 8 7 8 9 9 9 9 9 10 10 10
33 33 33 33 33 33 33 31 30 30 29 28 27 24 21 19 16 14 12 12 11 11 11 10 10 10 10 10 10 10 10 9 9 9 9 9 10 10 10 11 11 11 11 12
32 33 33 33 34 33 33 33 32 30 30 29 27 24 21 20 19 17 15 13 13 13 12 12 12 11 12 11 11 11 11 11 12 11 10 11 11 11 12 12 12 12 13 13
32 32 32 32 32 33 33 32 31 31 30 29 28 25 21 20 20 18 17 15 15 14 13 13 13 13 13 13 13 13 13 13 13 13 12 12 12 12 12 13 13 13 14 14
31 32 32 33 33 33 34 33 32 31 30 29 28 26 22 21 20 19 18 17 16 15 15 14 13 13 13 12 13 14 15 15 15 13 13 13 13 13 14 14 15 15 15 16
32 32 32 33 32 33 33 33 32 32 31 29 28 26 23 23 22 20 18 17 17 16 15 14 13 13 13 13 14 15 15 15 15 13 13 13 14 15 16 15 16 16 17 17
32 32 31 31 31 32 33 33 32 32 31 30 28 26 24 22 21 20 19 18 18 18 17 16 15 15 15 15 16 15 15 15 15 14 14 15 15 15 17 17 17 17 16 16
33 33 32 31 31 32 33 33 33 33 32 31 29 27 25 23 21 20 19 19 18 18 18 18 18 18 18 17 16 16 16 16 16 15 15 16 16 16 17 18 18 18 16 16
35 34 33 32 32 32 33 33 33 33 32 31 30 28 25 24 23 22 21 20 20 19 19 18 18 18 18 18 17 17 17 16 16 16 16 17 17 18 18 19 20 19 18 17
35 35 34 33 32 34 33 32 32 32 32 31 30 28 27 25 23 22 22 22 21 21 20 20 20 19 19 19 18 18 18 19 19 18 18 18 18 18 19 19 20 20 20 18
35 35 36 35 35 34 32 31 31 32 32 31 30 28 27 26 25 24 23 23 23 22 21 21 21 21 21 21 20 20 20 20 20 20 19 19 20 20 20 20 20 19 20 20
36 35 36 36 36 35 33 32 32 32 32 31 30 29 28 27 27 25 24 24 24 23 23 22 23 22 22 22 22 22 22 22 22 21 21 21 21 21 22 22 22 21 21 21
37 37 36 36 36 35 34 33 32 33 32 31 31 30 29 28 28 27 26 26 26 25 24 23 23 23 22 23 23 23 23 23 22 22 22 23 23 23 23 23 22 22 22 22
37 37 37 36 36 35 34 33 33 33 32 32 32 31 31 30 29 28 27 26 26 26 25 24 24 24 24 24 23 23 22 21 21 22 22 23 23 23 23 23 23 22 23 23
37 37 37 37 36 34 34 33 33 32 32 32 32 32 31 30 30 29 27 27 27 26 26 25 25 25 24 24 23 23 22 22 22 22 23 23 22 22 22 23 23 23 24 24
38 37 37 36 36 35 34 33 32 32 31 30 31 31 31 31 31 30 28 28 28 27 27 27 27 26 24 24 23 23 23 24 24 23 23 23 23 23 23 24 24 24 25 25
38 37 38 38 36 36 36 35 33 33 32 31 30 30 31 31 30 30 29 29 28 27 27 27 26 25 24 24 24 24 24 24 24 24 24 24 24 24 24 24 25 25 25 25
37 36 37 37 36 37 36 36 34 33 33 32 31 30 31 31 31 30 30 29 28 28 27 27 27 26 25 25 26 26 26 24 24 24 25 25 25 25 26 26 26 25 26 26
Wind_Direction
223 224 226 230 231 233 240 245 253 262 280 297 330 358 5 9 6 5 8 14 20 25 27 32 35 37 37 37 39 42 43 49 50 52 55 55 54 55 58 60 58 51 49 49
224 224 225 227 229 230 235 238 245 254 265 275 289 318 341 347 347 349 356 4 10 15 20 26 30 33 35 37 36 39 43 46 47 47 46 46 47 48 50 47 38 34 30 26
226 225 225 225 227 229 231 235 239 245 254 263 272 284 304 322 332 338 343 353 359 9 17 22 23 26 31 32 32 32 32 36 39 37 39 37 35 33 32 32 20 9 8 3
224 224 224 225 228 230 231 234 237 242 249 256 265 273 284 291 303 318 329 340 353 5 12 17 16 18 23 24 23 23 24 27 30 31 29 29 26 22 19 15 11 4 358 349
224 224 225 226 228 230 230 233 237 241 246 251 258 265 273 284 290 304 324 336 340 352 357 4 6 7 10 12 12 12 15 16 19 20 20 21 21 18 17 14 7 359 352 341
223 224 225 226 227 228 230 232 235 240 245 249 255 260 265 276 279 291 312 324 327 334 345 353 356 355 359 2 0 359 0 4 5 7 6 6 7 7 6 1 351 350 344 337
222 223 224 225 226 228 230 232 234 239 244 251 254 256 261 267 271 276 288 305 311 319 333 338 343 343 343 348 345 345 344 346 348 352 355 354 353 353 350 345 338 335 333 329
223 223 225 226 227 229 231 234 237 241 245 250 251 252 256 261 264 271 278 290 299 308 317 325 326 324 323 330 331 329 330 329 329 335 342 343 342 339 336 334 330 326 324 321
224 225 225 226 227 228 230 232 236 241 244 248 250 252 253 256 264 273 279 283 292 293 300 309 315 316 314 313 315 310 311 316 314 317 327 327 328 327 327 324 322 319 317 315
224 225 224 225 226 227 228 232 235 238 242 246 249 250 253 256 264 273 280 279 283 282 286 296 302 305 304 303 302 302 302 303 307 312 318 320 318 319 319 319 317 316 315 314
225 225 224 225 226 227 228 230 234 238 242 246 248 249 254 258 263 267 275 276 276 273 279 286 292 294 295 295 297 303 303 304 303 303 308 310 312 314 313 312 313 314 314 311
225 225 224 225 226 227 228 230 234 238 242 245 249 251 253 256 259 263 267 271 271 267 276 283 287 286 287 288 292 295 297 300 298 296 299 302 305 310 311 309 308 308 310 309
226 226 225 224 224 226 229 230 233 237 242 246 250 252 252 256 258 262 265 267 268 269 275 279 282 282 285 288 292 293 296 297 297 291 293 300 301 304 305 307 308 307 307 307
227 229 229 228 229 229 230 232 234 238 242 246 249 252 254 257 259 261 262 263 263 267 270 272 275 277 282 286 290 291 291 292 292 295 295 297 299 300 301 304 306 307 307 307
226 229 229 229 229 230 232 233 236 239 242 245 247 252 253 256 257 258 258 258 260 263 264 268 272 274 280 284 286 288 291 291 294 296 294 296 298 301 303 302 301 305 307 304
226 228 230 230 231 232 233 233 235 237 241 244 247 249 250 252 254 257 258 259 260 263 263 266 270 272 276 279 281 282 287 290 292 291 290 293 295 298 301 301 298 301 301 301
227 229 230 231 230 232 233 234 236 238 241 243 245 247 250 250 253 255 256 257 258 259 263 269 274 274 275 275 278 279 283 287 289 290 291 293 295 297 298 301 303 301 300 298
229 230 232 233 232 233 234 233 235 237 240 242 245 246 248 251 253 253 253 255 256 260 263 267 271 274 276 278 281 284 286 288 288 289 290 291 295 297 298 299 300 300 301 300
231 232 234 235 236 236 233 232 234 237 239 242 246 247 247 246 249 251 252 255 257 260 263 266 271 275 277 278 279 283 283 283 285 285 286 288 293 296 297 300 302 298 298 299
230 231 233 234 235 236 235 235 235 237 240 241 244 246 247 247 248 250 252 255 257 259 264 267 271 274 277 277 277 281 282 282 283 283 284 286 289 292 294 296 297 298 297 297
230 231 232 234 236 236 236 237 237 239 241 242 243 245 246 247 248 248 250 254 256 260 263 266 270 272 274 276 278 280 281 283 281 282 287 286 288 289 291 294 296 297 298 298
231 232 232 234 237 238 237 239 240 241 242 243 243 244 245 246 248 249 250 252 255 259 262 263 267 270 273 276 277 279 282 285 284 286 289 289 289 287 288 291 294 296 296 296
231 232 233 235 237 238 239 240 240 241 242 242 243 243 245 246 247 249 250 253 257 259 260 262 266 268 273 275 276 277 281 284 286 288 288 288 288 288 288 290 292 293 294 294
232 232 234 236 237 238 238 239 239 239 240 241 242 242 243 245 246 247 250 252 255 258 262 264 265 268 271 274 275 279 280 282 285 287 287 286 286 286 288 289 290 292 292 293
233 234 236 237 238 239 239 239 239 239 239 241 242 241 242 243 245 246 250 253 256 259 261 264 266 268 269 270 274 277 279 281 283 285 284 285 286 287 288 289 290 291 291 291
235 236 236 237 238 239 239 240 240 240 240 240 240 241 242 242 244 245 248 250 254 258 260 262 265 268 269 271 273 275 276 276 279 283 284 286 287 287 288 288 289 290 290 291